Year,Month,Day,Hour,Minute,Value (Times are PST for temperature in C)
2021,06,25,00,00,16.40
2021,06,25,00,01,16.40
2021,06,25,00,02,16.40
2021,06,25,00,03,16.30
2021,06,25,00,04,16.30
2021,06,25,00,05,16.20
2021,06,25,00,06,16.20
2021,06,25,00,07,16.20
2021,06,25,00,08,16.10
2021,06,25,00,09,16.10
2021,06,25,00,10,16.10
2021,06,25,00,11,16.00
2021,06,25,00,12,16.00
2021,06,25,00,13,15.90
2021,06,25,00,14,15.90
2021,06,25,00,15,15.90
2021,06,25,00,16,15.80
2021,06,25,00,17,15.80
2021,06,25,00,18,15.80
2021,06,25,00,19,15.80
2021,06,25,00,20,15.70
2021,06,25,00,21,15.70
2021,06,25,00,22,15.70
2021,06,25,00,23,15.60
2021,06,25,00,24,15.60
2021,06,25,00,25,15.60
2021,06,25,00,26,15.50
2021,06,25,00,27,15.50
2021,06,25,00,28,15.50
2021,06,25,00,29,15.40
2021,06,25,00,30,15.40
2021,06,25,00,31,15.40
2021,06,25,00,32,15.30
2021,06,25,00,33,15.30
2021,06,25,00,34,15.30
2021,06,25,00,35,15.30
2021,06,25,00,36,15.20
2021,06,25,00,37,15.20
2021,06,25,00,38,15.20
2021,06,25,00,39,15.20
2021,06,25,00,40,15.20
2021,06,25,00,41,15.10
2021,06,25,00,42,15.10
2021,06,25,00,43,15.10
2021,06,25,00,44,15.10
2021,06,25,00,45,15.10
2021,06,25,00,46,15.00
2021,06,25,00,47,15.00
2021,06,25,00,48,15.00
2021,06,25,00,49,14.90
2021,06,25,00,50,14.90
2021,06,25,00,51,14.90
2021,06,25,00,52,14.90
2021,06,25,00,53,14.80
2021,06,25,00,54,14.80
2021,06,25,00,55,14.80
2021,06,25,00,56,14.80
2021,06,25,00,57,14.80
2021,06,25,00,58,14.70
2021,06,25,00,59,14.70
2021,06,25,01,00,14.70
2021,06,25,01,01,14.70
2021,06,25,01,02,14.70
2021,06,25,01,03,14.70
2021,06,25,01,04,14.70
2021,06,25,01,05,14.60
2021,06,25,01,06,14.60
2021,06,25,01,07,14.60
2021,06,25,01,08,14.60
2021,06,25,01,09,14.60
2021,06,25,01,10,14.60
2021,06,25,01,11,14.60
2021,06,25,01,12,14.60
2021,06,25,01,13,14.50
2021,06,25,01,14,14.50
2021,06,25,01,15,14.50
2021,06,25,01,16,14.50
2021,06,25,01,17,14.50
2021,06,25,01,18,14.50
2021,06,25,01,19,14.40
2021,06,25,01,20,14.40
2021,06,25,01,21,14.40
2021,06,25,01,22,14.40
2021,06,25,01,23,14.40
2021,06,25,01,24,14.40
2021,06,25,01,25,14.40
2021,06,25,01,26,14.40
2021,06,25,01,27,14.40
2021,06,25,01,28,14.40
2021,06,25,01,29,14.40
2021,06,25,01,30,14.40
2021,06,25,01,31,14.40
2021,06,25,01,32,14.30
2021,06,25,01,33,14.30
2021,06,25,01,34,14.30
2021,06,25,01,35,14.30
2021,06,25,01,36,14.30
2021,06,25,01,37,14.30
2021,06,25,01,38,14.30
2021,06,25,01,39,14.30
2021,06,25,01,40,14.30
2021,06,25,01,41,14.30
2021,06,25,01,42,14.30
2021,06,25,01,43,14.30
2021,06,25,01,44,14.30
2021,06,25,01,45,14.30
2021,06,25,01,46,14.30
2021,06,25,01,47,14.30
2021,06,25,01,48,14.30
2021,06,25,01,49,14.30
2021,06,25,01,50,14.30
2021,06,25,01,51,14.20
2021,06,25,01,52,14.20
2021,06,25,01,53,14.20
2021,06,25,01,54,14.20
2021,06,25,01,55,14.20
2021,06,25,01,56,14.20
2021,06,25,01,57,14.20
2021,06,25,01,58,14.20
2021,06,25,01,59,14.20
2021,06,25,02,00,14.20
2021,06,25,02,01,14.20
2021,06,25,02,02,14.10
2021,06,25,02,03,14.10
2021,06,25,02,04,14.10
2021,06,25,02,05,14.10
2021,06,25,02,06,14.10
2021,06,25,02,07,14.10
2021,06,25,02,08,14.10
2021,06,25,02,09,14.10
2021,06,25,02,10,14.10
2021,06,25,02,11,14.10
2021,06,25,02,12,14.10
2021,06,25,02,13,14.10
2021,06,25,02,14,14.10
2021,06,25,02,15,14.10
2021,06,25,02,16,14.10
2021,06,25,02,17,14.10
2021,06,25,02,18,14.10
2021,06,25,02,19,14.10
2021,06,25,02,20,14.10
2021,06,25,02,21,14.10
2021,06,25,02,22,14.00
2021,06,25,02,23,14.10
2021,06,25,02,24,14.10
2021,06,25,02,25,14.10
2021,06,25,02,26,14.10
2021,06,25,02,27,14.10
2021,06,25,02,28,14.10
2021,06,25,02,29,14.10
2021,06,25,02,30,14.10
2021,06,25,02,31,14.00
2021,06,25,02,32,14.10
2021,06,25,02,33,14.00
2021,06,25,02,34,14.00
2021,06,25,02,35,14.00
2021,06,25,02,36,14.00
2021,06,25,02,37,14.00
2021,06,25,02,38,14.00
2021,06,25,02,39,14.00
2021,06,25,02,40,14.00
2021,06,25,02,41,13.90
2021,06,25,02,42,13.90
2021,06,25,02,43,13.90
2021,06,25,02,44,13.90
2021,06,25,02,45,13.90
2021,06,25,02,46,13.90
2021,06,25,02,47,13.90
2021,06,25,02,48,13.90
2021,06,25,02,49,13.90
2021,06,25,02,50,13.90
2021,06,25,02,51,13.80
2021,06,25,02,52,13.80
2021,06,25,02,53,13.80
2021,06,25,02,54,13.80
2021,06,25,02,55,13.80
2021,06,25,02,56,13.80
2021,06,25,02,57,13.80
2021,06,25,02,58,13.80
2021,06,25,02,59,13.80
2021,06,25,03,00,13.80
2021,06,25,03,01,13.70
2021,06,25,03,02,13.70
2021,06,25,03,03,13.70
2021,06,25,03,04,13.70
2021,06,25,03,05,13.70
2021,06,25,03,06,13.70
2021,06,25,03,07,13.70
2021,06,25,03,08,13.70
2021,06,25,03,09,13.70
2021,06,25,03,10,13.70
2021,06,25,03,11,13.70
2021,06,25,03,12,13.70
2021,06,25,03,13,13.70
2021,06,25,03,14,13.70
2021,06,25,03,15,13.60
2021,06,25,03,16,13.60
2021,06,25,03,17,13.70
2021,06,25,03,18,13.70
2021,06,25,03,19,13.60
2021,06,25,03,20,13.60
2021,06,25,03,21,13.60
2021,06,25,03,22,13.60
2021,06,25,03,23,13.60
2021,06,25,03,24,13.60
2021,06,25,03,25,13.60
2021,06,25,03,26,13.60
2021,06,25,03,27,13.60
2021,06,25,03,28,13.60
2021,06,25,03,29,13.60
2021,06,25,03,30,13.60
2021,06,25,03,31,13.60
2021,06,25,03,32,13.60
2021,06,25,03,33,13.60
2021,06,25,03,34,13.60
2021,06,25,03,35,13.60
2021,06,25,03,36,13.60
2021,06,25,03,37,13.60
2021,06,25,03,38,13.60
2021,06,25,03,39,13.60
2021,06,25,03,40,13.60
2021,06,25,03,41,13.60
2021,06,25,03,42,13.60
2021,06,25,03,43,13.60
2021,06,25,03,44,13.60
2021,06,25,03,45,13.60
2021,06,25,03,46,13.60
2021,06,25,03,47,13.60
2021,06,25,03,48,13.60
2021,06,25,03,49,13.60
2021,06,25,03,50,13.60
2021,06,25,03,51,13.60
2021,06,25,03,52,13.60
2021,06,25,03,53,13.60
2021,06,25,03,54,13.60
2021,06,25,03,55,13.60
2021,06,25,03,56,13.60
2021,06,25,03,57,13.50
2021,06,25,03,58,13.50
2021,06,25,03,59,13.50
2021,06,25,04,00,13.50
2021,06,25,04,01,13.50
2021,06,25,04,02,13.50
2021,06,25,04,03,13.50
2021,06,25,04,04,13.50
2021,06,25,04,05,13.50
2021,06,25,04,06,13.50
2021,06,25,04,07,13.40
2021,06,25,04,08,13.40
2021,06,25,04,09,13.40
2021,06,25,04,10,13.40
2021,06,25,04,11,13.40
2021,06,25,04,12,13.40
2021,06,25,04,13,13.40
2021,06,25,04,14,13.40
2021,06,25,04,15,13.40
2021,06,25,04,16,13.40
2021,06,25,04,17,13.40
2021,06,25,04,18,13.40
2021,06,25,04,19,13.40
2021,06,25,04,20,13.40
2021,06,25,04,21,13.40
2021,06,25,04,22,13.40
2021,06,25,04,23,13.40
2021,06,25,04,24,13.40
2021,06,25,04,25,13.40
2021,06,25,04,26,13.30
2021,06,25,04,27,13.40
2021,06,25,04,28,13.30
2021,06,25,04,29,13.30
2021,06,25,04,30,13.30
2021,06,25,04,31,13.30
2021,06,25,04,32,13.30
2021,06,25,04,33,13.30
2021,06,25,04,34,13.30
2021,06,25,04,35,13.30
2021,06,25,04,36,13.30
2021,06,25,04,37,13.30
2021,06,25,04,38,13.30
2021,06,25,04,39,13.30
2021,06,25,04,40,13.30
2021,06,25,04,41,13.30
2021,06,25,04,42,13.30
2021,06,25,04,43,13.20
2021,06,25,04,44,13.30
2021,06,25,04,45,13.30
2021,06,25,04,46,13.30
2021,06,25,04,47,13.30
2021,06,25,04,48,13.30
2021,06,25,04,49,13.30
2021,06,25,04,50,13.30
2021,06,25,04,51,13.30
2021,06,25,04,52,13.30
2021,06,25,04,53,13.30
2021,06,25,04,54,13.40
2021,06,25,04,55,13.40
2021,06,25,04,56,13.40
2021,06,25,04,57,13.40
2021,06,25,04,58,13.40
2021,06,25,04,59,13.40
2021,06,25,05,00,13.50
2021,06,25,05,01,13.50
2021,06,25,05,02,13.50
2021,06,25,05,03,13.50
2021,06,25,05,04,13.50
2021,06,25,05,05,13.50
2021,06,25,05,06,13.50
2021,06,25,05,07,13.50
2021,06,25,05,08,13.60
2021,06,25,05,09,13.60
2021,06,25,05,10,13.60
2021,06,25,05,11,13.60
2021,06,25,05,12,13.60
2021,06,25,05,13,13.60
2021,06,25,05,14,13.60
2021,06,25,05,15,13.70
2021,06,25,05,16,13.70
2021,06,25,05,17,13.70
2021,06,25,05,18,13.70
2021,06,25,05,19,13.70
2021,06,25,05,20,13.70
2021,06,25,05,21,13.80
2021,06,25,05,22,13.80
2021,06,25,05,23,13.80
2021,06,25,05,24,13.80
2021,06,25,05,25,13.80
2021,06,25,05,26,13.80
2021,06,25,05,27,13.80
2021,06,25,05,28,13.80
2021,06,25,05,29,13.80
2021,06,25,05,30,13.80
2021,06,25,05,31,13.80
2021,06,25,05,32,13.80
2021,06,25,05,33,13.80
2021,06,25,05,34,13.80
2021,06,25,05,35,13.80
2021,06,25,05,36,13.80
2021,06,25,05,37,13.80
2021,06,25,05,38,13.80
2021,06,25,05,39,13.80
2021,06,25,05,40,13.80
2021,06,25,05,41,13.80
2021,06,25,05,42,13.80
2021,06,25,05,43,13.80
2021,06,25,05,44,13.80
2021,06,25,05,45,13.80
2021,06,25,05,46,13.80
2021,06,25,05,47,13.80
2021,06,25,05,48,13.80
2021,06,25,05,49,13.80
2021,06,25,05,50,13.80
2021,06,25,05,51,13.80
2021,06,25,05,52,13.80
2021,06,25,05,53,13.80
2021,06,25,05,54,13.80
2021,06,25,05,55,13.80
2021,06,25,05,56,13.80
2021,06,25,05,57,13.80
2021,06,25,05,58,13.80
2021,06,25,05,59,13.90
2021,06,25,06,00,13.90
2021,06,25,06,01,13.90
2021,06,25,06,02,13.90
2021,06,25,06,03,13.90
2021,06,25,06,04,13.90
2021,06,25,06,05,13.90
2021,06,25,06,06,13.90
2021,06,25,06,07,13.90
2021,06,25,06,08,13.90
2021,06,25,06,09,13.90
2021,06,25,06,10,13.90
2021,06,25,06,11,13.90
2021,06,25,06,12,14.00
2021,06,25,06,13,14.00
2021,06,25,06,14,14.00
2021,06,25,06,15,14.00
2021,06,25,06,16,14.10
2021,06,25,06,17,14.10
2021,06,25,06,18,14.10
2021,06,25,06,19,14.10
2021,06,25,06,20,14.10
2021,06,25,06,21,14.10
2021,06,25,06,22,14.10
2021,06,25,06,23,14.20
2021,06,25,06,24,14.20
2021,06,25,06,25,14.20
2021,06,25,06,26,14.20
2021,06,25,06,27,14.20
2021,06,25,06,28,14.30
2021,06,25,06,29,14.30
2021,06,25,06,30,14.30
2021,06,25,06,31,14.30
2021,06,25,06,32,14.30
2021,06,25,06,33,14.40
2021,06,25,06,34,14.40
2021,06,25,06,35,14.40
2021,06,25,06,36,14.50
2021,06,25,06,37,14.50
2021,06,25,06,38,14.60
2021,06,25,06,39,14.60
2021,06,25,06,40,14.60
2021,06,25,06,41,14.60
2021,06,25,06,42,14.70
2021,06,25,06,43,14.80
2021,06,25,06,44,14.80
2021,06,25,06,45,14.90
2021,06,25,06,46,14.90
2021,06,25,06,47,15.00
2021,06,25,06,48,15.00
2021,06,25,06,49,15.10
2021,06,25,06,50,15.20
2021,06,25,06,51,15.20
2021,06,25,06,52,15.30
2021,06,25,06,53,15.40
2021,06,25,06,54,15.50
2021,06,25,06,55,15.50
2021,06,25,06,56,15.60
2021,06,25,06,57,15.70
2021,06,25,06,58,15.70
2021,06,25,06,59,15.80
2021,06,25,07,00,15.90
2021,06,25,07,01,15.90
2021,06,25,07,02,16.00
2021,06,25,07,03,16.10
2021,06,25,07,04,16.10
2021,06,25,07,05,16.20
2021,06,25,07,06,16.20
2021,06,25,07,07,16.30
2021,06,25,07,08,16.30
2021,06,25,07,09,16.40
2021,06,25,07,10,16.40
2021,06,25,07,11,16.50
2021,06,25,07,12,16.50
2021,06,25,07,13,16.60
2021,06,25,07,14,16.60
2021,06,25,07,15,16.70
2021,06,25,07,16,16.70
2021,06,25,07,17,16.70
2021,06,25,07,18,16.80
2021,06,25,07,19,16.80
2021,06,25,07,20,16.80
2021,06,25,07,21,16.80
2021,06,25,07,22,16.90
2021,06,25,07,23,16.90
2021,06,25,07,24,17.00
2021,06,25,07,25,17.00
2021,06,25,07,26,17.00
2021,06,25,07,27,17.10
2021,06,25,07,28,17.10
2021,06,25,07,29,17.10
2021,06,25,07,30,17.20
2021,06,25,07,31,17.20
2021,06,25,07,32,17.30
2021,06,25,07,33,17.30
2021,06,25,07,34,17.40
2021,06,25,07,35,17.50
2021,06,25,07,36,17.60
2021,06,25,07,37,17.70
2021,06,25,07,38,17.80
2021,06,25,07,39,17.90
2021,06,25,07,40,18.00
2021,06,25,07,41,18.10
2021,06,25,07,42,18.10
2021,06,25,07,43,18.20
2021,06,25,07,44,18.30
2021,06,25,07,45,18.40
2021,06,25,07,46,18.50
2021,06,25,07,47,18.60
2021,06,25,07,48,18.60
2021,06,25,07,49,18.70
2021,06,25,07,50,18.70
2021,06,25,07,51,18.80
2021,06,25,07,52,18.80
2021,06,25,07,53,18.80
2021,06,25,07,54,18.90
2021,06,25,07,55,18.90
2021,06,25,07,56,19.00
2021,06,25,07,57,19.00
2021,06,25,07,58,19.10
2021,06,25,07,59,19.10
2021,06,25,08,00,19.20
2021,06,25,08,01,19.20
2021,06,25,08,02,19.20
2021,06,25,08,03,19.20
2021,06,25,08,04,19.30
2021,06,25,08,05,19.30
2021,06,25,08,06,19.40
2021,06,25,08,07,19.40
2021,06,25,08,08,19.50
2021,06,25,08,09,19.50
2021,06,25,08,10,19.50
2021,06,25,08,11,19.60
2021,06,25,08,12,19.60
2021,06,25,08,13,19.70
2021,06,25,08,14,19.70
2021,06,25,08,15,19.70
2021,06,25,08,16,19.80
2021,06,25,08,17,19.80
2021,06,25,08,18,19.80
2021,06,25,08,19,19.80
2021,06,25,08,20,19.80
2021,06,25,08,21,19.90
2021,06,25,08,22,19.90
2021,06,25,08,23,19.90
2021,06,25,08,24,20.00
2021,06,25,08,25,20.00
2021,06,25,08,26,20.10
2021,06,25,08,27,20.20
2021,06,25,08,28,20.20
2021,06,25,08,29,20.30
2021,06,25,08,30,20.30
2021,06,25,08,31,20.30
2021,06,25,08,32,20.40
2021,06,25,08,33,20.40
2021,06,25,08,34,20.40
2021,06,25,08,35,20.50
2021,06,25,08,36,20.60
2021,06,25,08,37,20.60
2021,06,25,08,38,20.60
2021,06,25,08,39,20.60
2021,06,25,08,40,20.70
2021,06,25,08,41,20.70
2021,06,25,08,42,20.80
2021,06,25,08,43,20.80
2021,06,25,08,44,20.90
2021,06,25,08,45,20.90
2021,06,25,08,46,21.00
2021,06,25,08,47,21.00
2021,06,25,08,48,21.10
2021,06,25,08,49,21.20
2021,06,25,08,50,21.20
2021,06,25,08,51,21.30
2021,06,25,08,52,21.30
2021,06,25,08,53,21.40
2021,06,25,08,54,21.50
2021,06,25,08,55,21.60
2021,06,25,08,56,21.60
2021,06,25,08,57,21.70
2021,06,25,08,58,21.80
2021,06,25,08,59,21.80
2021,06,25,09,00,21.90
2021,06,25,09,01,21.90
2021,06,25,09,02,22.00
2021,06,25,09,03,22.10
2021,06,25,09,04,22.10
2021,06,25,09,05,22.20
2021,06,25,09,06,22.30
2021,06,25,09,07,22.30
2021,06,25,09,08,22.40
2021,06,25,09,09,22.40
2021,06,25,09,10,22.50
2021,06,25,09,11,22.50
2021,06,25,09,12,22.60
2021,06,25,09,13,22.60
2021,06,25,09,14,22.70
2021,06,25,09,15,22.70
2021,06,25,09,16,22.80
2021,06,25,09,17,22.80
2021,06,25,09,18,22.80
2021,06,25,09,19,22.80
2021,06,25,09,20,22.90
2021,06,25,09,21,22.90
2021,06,25,09,22,22.90
2021,06,25,09,23,23.00
2021,06,25,09,24,23.00
2021,06,25,09,25,23.00
2021,06,25,09,26,23.00
2021,06,25,09,27,23.00
2021,06,25,09,28,23.00
2021,06,25,09,29,23.00
2021,06,25,09,30,22.90
2021,06,25,09,31,22.90
2021,06,25,09,32,22.90
2021,06,25,09,33,22.90
2021,06,25,09,34,22.90
2021,06,25,09,35,22.90
2021,06,25,09,36,22.90
2021,06,25,09,37,22.90
2021,06,25,09,38,23.00
2021,06,25,09,39,23.00
2021,06,25,09,40,23.10
2021,06,25,09,41,23.10
2021,06,25,09,42,23.20
2021,06,25,09,43,23.30
2021,06,25,09,44,23.30
2021,06,25,09,45,23.30
2021,06,25,09,46,23.40
2021,06,25,09,47,23.30
2021,06,25,09,48,23.30
2021,06,25,09,49,23.30
2021,06,25,09,50,23.30
2021,06,25,09,51,23.40
2021,06,25,09,52,23.40
2021,06,25,09,53,23.40
2021,06,25,09,54,23.40
2021,06,25,09,55,23.40
2021,06,25,09,56,23.40
2021,06,25,09,57,23.40
2021,06,25,09,58,23.50
2021,06,25,09,59,23.50
2021,06,25,10,00,23.60
2021,06,25,10,01,23.60
2021,06,25,10,02,23.60
2021,06,25,10,03,23.60
2021,06,25,10,04,23.70
2021,06,25,10,05,23.70
2021,06,25,10,06,23.70
2021,06,25,10,07,23.70
2021,06,25,10,08,23.80
2021,06,25,10,09,23.80
2021,06,25,10,10,23.80
2021,06,25,10,11,23.80
2021,06,25,10,12,23.80
2021,06,25,10,13,23.80
2021,06,25,10,14,23.90
2021,06,25,10,15,24.00
2021,06,25,10,16,24.00
2021,06,25,10,17,24.10
2021,06,25,10,18,24.20
2021,06,25,10,19,24.20
2021,06,25,10,20,24.30
2021,06,25,10,21,24.30
2021,06,25,10,22,24.40
2021,06,25,10,23,24.40
2021,06,25,10,24,24.40
2021,06,25,10,25,24.50
2021,06,25,10,26,24.60
2021,06,25,10,27,24.60
2021,06,25,10,28,24.70
2021,06,25,10,29,24.80
2021,06,25,10,30,24.80
2021,06,25,10,31,24.90
2021,06,25,10,32,24.90
2021,06,25,10,33,25.00
2021,06,25,10,34,25.00
2021,06,25,10,35,25.00
2021,06,25,10,36,25.10
2021,06,25,10,37,25.10
2021,06,25,10,38,25.10
2021,06,25,10,39,25.10
2021,06,25,10,40,25.20
2021,06,25,10,41,25.30
2021,06,25,10,42,25.30
2021,06,25,10,43,25.40
2021,06,25,10,44,25.40
2021,06,25,10,45,25.40
2021,06,25,10,46,25.40
2021,06,25,10,47,25.40
2021,06,25,10,48,25.40
2021,06,25,10,49,25.40
2021,06,25,10,50,25.50
2021,06,25,10,51,25.50
2021,06,25,10,52,25.60
2021,06,25,10,53,25.60
2021,06,25,10,54,25.60
2021,06,25,10,55,25.60
2021,06,25,10,56,25.60
2021,06,25,10,57,25.60
2021,06,25,10,58,25.60
2021,06,25,10,59,25.60
2021,06,25,11,00,25.60
2021,06,25,11,01,25.60
2021,06,25,11,02,25.70
2021,06,25,11,03,25.70
2021,06,25,11,04,25.80
2021,06,25,11,05,25.80
2021,06,25,11,06,25.80
2021,06,25,11,07,25.90
2021,06,25,11,08,26.00
2021,06,25,11,09,26.10
2021,06,25,11,10,26.20
2021,06,25,11,11,26.20
2021,06,25,11,12,26.20
2021,06,25,11,13,26.20
2021,06,25,11,14,26.30
2021,06,25,11,15,26.30
2021,06,25,11,16,26.30
2021,06,25,11,17,26.40
2021,06,25,11,18,26.40
2021,06,25,11,19,26.30
2021,06,25,11,20,26.30
2021,06,25,11,21,26.30
2021,06,25,11,22,26.20
2021,06,25,11,23,26.20
2021,06,25,11,24,26.20
2021,06,25,11,25,26.10
2021,06,25,11,26,26.10
2021,06,25,11,27,26.10
2021,06,25,11,28,26.10
2021,06,25,11,29,26.10
2021,06,25,11,30,26.10
2021,06,25,11,31,26.10
2021,06,25,11,32,26.10
2021,06,25,11,33,26.10
2021,06,25,11,34,26.00
2021,06,25,11,35,26.00
2021,06,25,11,36,26.00
2021,06,25,11,37,26.10
2021,06,25,11,38,26.10
2021,06,25,11,39,26.10
2021,06,25,11,40,26.10
2021,06,25,11,41,26.20
2021,06,25,11,42,26.20
2021,06,25,11,43,26.30
2021,06,25,11,44,26.30
2021,06,25,11,45,26.30
2021,06,25,11,46,26.40
2021,06,25,11,47,26.40
2021,06,25,11,48,26.40
2021,06,25,11,49,26.50
2021,06,25,11,50,26.50
2021,06,25,11,51,26.50
2021,06,25,11,52,26.60
2021,06,25,11,53,26.60
2021,06,25,11,54,26.60
2021,06,25,11,55,26.70
2021,06,25,11,56,26.70
2021,06,25,11,57,26.80
2021,06,25,11,58,26.80
2021,06,25,11,59,26.90
2021,06,25,12,00,26.90
2021,06,25,12,01,27.00
2021,06,25,12,02,27.00
2021,06,25,12,03,27.10
2021,06,25,12,04,27.10
2021,06,25,12,05,27.20
2021,06,25,12,06,27.20
2021,06,25,12,07,27.20
2021,06,25,12,08,27.20
2021,06,25,12,09,27.10
2021,06,25,12,10,27.10
2021,06,25,12,11,27.10
2021,06,25,12,12,27.10
2021,06,25,12,13,27.00
2021,06,25,12,14,27.00
2021,06,25,12,15,26.90
2021,06,25,12,16,26.80
2021,06,25,12,17,26.80
2021,06,25,12,18,26.70
2021,06,25,12,19,26.80
2021,06,25,12,20,26.80
2021,06,25,12,21,26.70
2021,06,25,12,22,26.80
2021,06,25,12,23,26.70
2021,06,25,12,24,26.70
2021,06,25,12,25,26.70
2021,06,25,12,26,26.70
2021,06,25,12,27,26.70
2021,06,25,12,28,26.80
2021,06,25,12,29,26.80
2021,06,25,12,30,26.80
2021,06,25,12,31,26.80
2021,06,25,12,32,26.90
2021,06,25,12,33,26.90
2021,06,25,12,34,26.90
2021,06,25,12,35,27.00
2021,06,25,12,36,27.00
2021,06,25,12,37,27.00
2021,06,25,12,38,27.00
2021,06,25,12,39,27.10
2021,06,25,12,40,27.10
2021,06,25,12,41,27.00
2021,06,25,12,42,27.10
2021,06,25,12,43,27.10
2021,06,25,12,44,27.10
2021,06,25,12,45,27.20
2021,06,25,12,46,27.20
2021,06,25,12,47,27.20
2021,06,25,12,48,27.20
2021,06,25,12,49,27.30
2021,06,25,12,50,27.30
2021,06,25,12,51,27.40
2021,06,25,12,52,27.50
2021,06,25,12,53,27.60
2021,06,25,12,54,27.60
2021,06,25,12,55,27.60
2021,06,25,12,56,27.60
2021,06,25,12,57,27.60
2021,06,25,12,58,27.70
2021,06,25,12,59,27.80
2021,06,25,13,00,27.90
2021,06,25,13,01,28.00
2021,06,25,13,02,28.00
2021,06,25,13,03,28.00
2021,06,25,13,04,28.10
2021,06,25,13,05,28.10
2021,06,25,13,06,28.10
2021,06,25,13,07,28.20
2021,06,25,13,08,28.20
2021,06,25,13,09,28.20
2021,06,25,13,10,28.30
2021,06,25,13,11,28.30
2021,06,25,13,12,28.30
2021,06,25,13,13,28.40
2021,06,25,13,14,28.40
2021,06,25,13,15,28.40
2021,06,25,13,16,28.40
2021,06,25,13,17,28.40
2021,06,25,13,18,28.40
2021,06,25,13,19,28.40
2021,06,25,13,20,28.40
2021,06,25,13,21,28.50
2021,06,25,13,22,28.50
2021,06,25,13,23,28.60
2021,06,25,13,24,28.60
2021,06,25,13,25,28.60
2021,06,25,13,26,28.60
2021,06,25,13,27,28.60
2021,06,25,13,28,28.60
2021,06,25,13,29,28.70
2021,06,25,13,30,28.80
2021,06,25,13,31,28.80
2021,06,25,13,32,29.00
2021,06,25,13,33,29.10
2021,06,25,13,34,29.20
2021,06,25,13,35,29.20
2021,06,25,13,36,29.20
2021,06,25,13,37,29.30
2021,06,25,13,38,29.40
2021,06,25,13,39,29.40
2021,06,25,13,40,29.50
2021,06,25,13,41,29.50
2021,06,25,13,42,29.60
2021,06,25,13,43,29.70
2021,06,25,13,44,29.70
2021,06,25,13,45,29.80
2021,06,25,13,46,29.80
2021,06,25,13,47,29.90
2021,06,25,13,48,29.90
2021,06,25,13,49,29.90
2021,06,25,13,50,29.90
2021,06,25,13,51,29.80
2021,06,25,13,52,29.80
2021,06,25,13,53,29.80
2021,06,25,13,54,29.80
2021,06,25,13,55,29.80
2021,06,25,13,56,29.80
2021,06,25,13,57,29.90
2021,06,25,13,58,29.90
2021,06,25,13,59,30.00
2021,06,25,14,00,30.00
2021,06,25,14,01,30.10
2021,06,25,14,02,30.10
2021,06,25,14,03,30.10
2021,06,25,14,04,30.10
2021,06,25,14,05,30.10
2021,06,25,14,06,30.10
2021,06,25,14,07,30.20
2021,06,25,14,08,30.20
2021,06,25,14,09,30.30
2021,06,25,14,10,30.30
2021,06,25,14,11,30.40
2021,06,25,14,12,30.40
2021,06,25,14,13,30.40
2021,06,25,14,14,30.40
2021,06,25,14,15,30.40
2021,06,25,14,16,30.30
2021,06,25,14,17,30.30
2021,06,25,14,18,30.20
2021,06,25,14,19,30.10
2021,06,25,14,20,30.10
2021,06,25,14,21,30.00
2021,06,25,14,22,30.00
2021,06,25,14,23,30.00
2021,06,25,14,24,29.90
2021,06,25,14,25,30.00
2021,06,25,14,26,29.90
2021,06,25,14,27,29.90
2021,06,25,14,28,29.80
2021,06,25,14,29,29.80
2021,06,25,14,30,29.70
2021,06,25,14,31,29.70
2021,06,25,14,32,29.70
2021,06,25,14,33,29.70
2021,06,25,14,34,29.70
2021,06,25,14,35,29.60
2021,06,25,14,36,29.60
2021,06,25,14,37,29.60
2021,06,25,14,38,29.60
2021,06,25,14,39,29.60
2021,06,25,14,40,29.70
2021,06,25,14,41,29.80
2021,06,25,14,42,29.80
2021,06,25,14,43,29.90
2021,06,25,14,44,30.00
2021,06,25,14,45,30.10
2021,06,25,14,46,30.20
2021,06,25,14,47,30.30
2021,06,25,14,48,30.40
2021,06,25,14,49,30.50
2021,06,25,14,50,30.60
2021,06,25,14,51,30.70
2021,06,25,14,52,30.80
2021,06,25,14,53,30.90
2021,06,25,14,54,31.00
2021,06,25,14,55,31.00
2021,06,25,14,56,31.10
2021,06,25,14,57,31.20
2021,06,25,14,58,31.30
2021,06,25,14,59,31.30
2021,06,25,15,00,31.40
2021,06,25,15,01,31.40
2021,06,25,15,02,31.50
2021,06,25,15,03,31.60
2021,06,25,15,04,31.70
2021,06,25,15,05,31.70
2021,06,25,15,06,31.80
2021,06,25,15,07,31.80
2021,06,25,15,08,31.90
2021,06,25,15,09,31.90
2021,06,25,15,10,31.90
2021,06,25,15,11,31.90
2021,06,25,15,12,31.90
2021,06,25,15,13,31.90
2021,06,25,15,14,32.00
2021,06,25,15,15,32.00
2021,06,25,15,16,32.10
2021,06,25,15,17,32.10
2021,06,25,15,18,32.20
2021,06,25,15,19,32.30
2021,06,25,15,20,32.40
2021,06,25,15,21,32.40
2021,06,25,15,22,32.50
2021,06,25,15,23,32.50
2021,06,25,15,24,32.60
2021,06,25,15,25,32.70
2021,06,25,15,26,32.80
2021,06,25,15,27,32.80
2021,06,25,15,28,32.80
2021,06,25,15,29,32.80
2021,06,25,15,30,32.80
2021,06,25,15,31,32.80
2021,06,25,15,32,32.80
2021,06,25,15,33,32.90
2021,06,25,15,34,32.90
2021,06,25,15,35,32.90
2021,06,25,15,36,32.90
2021,06,25,15,37,32.90
2021,06,25,15,38,33.00
2021,06,25,15,39,33.00
2021,06,25,15,40,32.90
2021,06,25,15,41,32.90
2021,06,25,15,42,33.00
2021,06,25,15,43,33.00
2021,06,25,15,44,33.10
2021,06,25,15,45,33.10
2021,06,25,15,46,33.10
2021,06,25,15,47,33.20
2021,06,25,15,48,33.20
2021,06,25,15,49,33.20
2021,06,25,15,50,33.20
2021,06,25,15,51,33.20
2021,06,25,15,52,33.20
2021,06,25,15,53,33.20
2021,06,25,15,54,33.20
2021,06,25,15,55,33.20
2021,06,25,15,56,33.10
2021,06,25,15,57,33.10
2021,06,25,15,58,33.10
2021,06,25,15,59,33.20
2021,06,25,16,00,33.10
2021,06,25,16,01,33.10
2021,06,25,16,02,33.20
2021,06,25,16,03,33.20
2021,06,25,16,04,33.20
2021,06,25,16,05,33.20
2021,06,25,16,06,33.30
2021,06,25,16,07,33.30
2021,06,25,16,08,33.40
2021,06,25,16,09,33.40
2021,06,25,16,10,33.40
2021,06,25,16,11,33.50
2021,06,25,16,12,33.50
2021,06,25,16,13,33.50
2021,06,25,16,14,33.60
2021,06,25,16,15,33.60
2021,06,25,16,16,33.60
2021,06,25,16,17,33.60
2021,06,25,16,18,33.60
2021,06,25,16,19,33.70
2021,06,25,16,20,33.70
2021,06,25,16,21,33.70
2021,06,25,16,22,33.70
2021,06,25,16,23,33.70
2021,06,25,16,24,33.70
2021,06,25,16,25,33.70
2021,06,25,16,26,33.70
2021,06,25,16,27,33.70
2021,06,25,16,28,33.60
2021,06,25,16,29,33.60
2021,06,25,16,30,33.50
2021,06,25,16,31,33.40
2021,06,25,16,32,33.40
2021,06,25,16,33,33.40
2021,06,25,16,34,33.30
2021,06,25,16,35,33.30
2021,06,25,16,36,33.20
2021,06,25,16,37,33.20
2021,06,25,16,38,33.20
2021,06,25,16,39,33.20
2021,06,25,16,40,33.20
2021,06,25,16,41,33.20
2021,06,25,16,42,33.20
2021,06,25,16,43,33.20
2021,06,25,16,44,33.30
2021,06,25,16,45,33.30
2021,06,25,16,46,33.30
2021,06,25,16,47,33.30
2021,06,25,16,48,33.30
2021,06,25,16,49,33.40
2021,06,25,16,50,33.40
2021,06,25,16,51,33.40
2021,06,25,16,52,33.40
2021,06,25,16,53,33.50
2021,06,25,16,54,33.50
2021,06,25,16,55,33.60
2021,06,25,16,56,33.60
2021,06,25,16,57,33.60
2021,06,25,16,58,33.60
2021,06,25,16,59,33.60
2021,06,25,17,00,33.70
2021,06,25,17,01,33.70
2021,06,25,17,02,33.70
2021,06,25,17,03,33.70
2021,06,25,17,04,33.70
2021,06,25,17,05,33.70
2021,06,25,17,06,33.70
2021,06,25,17,07,33.60
2021,06,25,17,08,33.60
2021,06,25,17,09,33.60
2021,06,25,17,10,33.60
2021,06,25,17,11,33.60
2021,06,25,17,12,33.60
2021,06,25,17,13,33.60
2021,06,25,17,14,33.60
2021,06,25,17,15,33.60
2021,06,25,17,16,33.60
2021,06,25,17,17,33.60
2021,06,25,17,18,33.60
2021,06,25,17,19,33.60